Home > Weather > Burgdorf > Past weeks

Flag for Germany Past Weather in Burgdorf, Lower Saxony, Germany — Yesterday and Last 2 Weeks

Now
52 °F

Light rain. Partly sunny.


Feels Like: 48 °F
Forecast: 49 / 67 °F
Wind: 10 mph from Northwest

Location: Celle Airport

Current Time: May 24, 2016 at 10:01:49 AM

Latest Report: May 24, 2016 at 8:20 AM


Visibility: 5 mi

Pressure: 29.89 "Hg

Humidity: 94%

Dew Point: 50 °F

Location of BurgdorfLocation

Past Weather in Burgdorf — Graph

°F

Burgdorf Temperature Yesterday

Maximum temperature yesterday: 72 °F (at 5:20 PM)
Minimum temperature yesterday: 59 °F (at 3:20 AM)
Average temperature yesterday: 64 °F

High & Low Weather Summary for the Past Weeks

 TemperatureHumidityPressure
High82 °F (May 22, 2:20 PM)100% (May 20, 11:20 PM)30.09 "Hg (May 20, 11:20 PM)
Low39 °F (May 15, 11:20 AM)25% (May 13, 4:20 PM)29.56 "Hg (May 12, 4:20 PM)
Average59 °F63%29.86 "Hg
* Reported May 9 8:20 AM — May 24 8:20 AM, Burgdorf, Weather by CustomWeather, © 2016

Note: Actual official high and low records may vary slightly from our data, if they occured in-between our weather recording intervals... More about our weather records

Advertising

Burgdorf Weather History for the Previous 24 Hours

Scroll right to see more
 ConditionsComfort  
Time TempWeatherWind HumidityBarometerVisibility
8:20 AM
Tue, May 24
52 °FLight rain. Partly sunny.10 mph94%29.89 "Hg5 mi
7:49 AM52 °FPartly sunny.9 mph100%29.86 "Hg5 mi
7:20 AM52 °FDrizzle. Partly sunny.8 mph100%29.86 "Hg4 mi
6:20 AM54 °FDrizzle. Partly sunny.8 mph94%29.86 "Hg4 mi
5:20 AM54 °FPartly cloudy.9 mph94%29.86 "Hg4 mi
4:20 AM54 °FLight rain. Fog.10 mph100%29.86 "Hg3 mi
3:20 AM55 °FLight rain. Fog.9 mph94%29.86 "Hg3 mi
2:20 AM55 °FPassing clouds.9 mph100%29.86 "Hg4 mi
1:20 AM57 °FPassing clouds.9 mph94%29.86 "Hg6 mi
12:20 AM59 °FPassing clouds.7 mph88%29.86 "HgN/A
11:20 PM
Mon, May 23
59 °FPassing clouds.8 mph88%29.83 "HgN/A
10:20 PM61 °FBroken clouds.7 mph83%29.83 "HgN/A
9:20 PM63 °FPartly sunny.8 mph73%29.83 "HgN/A
8:20 PM66 °FPartly sunny.10 mph64%29.80 "HgN/A
7:20 PM70 °FScattered clouds.8 mph60%29.80 "HgN/A
6:20 PM72 °FScattered clouds.7 mph50%29.80 "HgN/A
5:20 PM72 °FScattered clouds.6 mph47%29.80 "HgN/A
4:20 PM70 °FScattered clouds.6 mph57%29.80 "HgN/A
3:20 PM70 °FBroken clouds.6 mph60%29.80 "HgN/A
2:20 PM66 °FBroken clouds.6 mph68%29.80 "HgN/A
1:20 PM66 °FBroken clouds.5 mph68%29.80 "HgN/A
12:20 PM66 °FBroken clouds.8 mph68%29.80 "HgN/A
11:20 AM66 °FBroken clouds.6 mph73%29.80 "HgN/A
10:20 AM63 °FBroken clouds.10 mph77%29.80 "HgN/A
Weather by CustomWeather, © 2016

See weather overviewHow to use our weather pages